STARLINK-36390

Last updated on Tue Mar 24 2026 00:02:05 GMT+0000 (Coordinated Universal Time)

1 67886U 26035H 26082.53975242 .00157705 00000+0 10385-2 0 9999 2 67886 97.2844 15.6176 0002657 56.8490 303.3030 15.75193127 6020
UTC large
Height (km)
Speed (km/s)
/
Latitude / Longitude
Inclination (degrees)
Orbital Period (minutes)
Azimuth
Elevation
Range (km)
Doppler Factor

Next 0 passes for location: London (51.5072 / 0.1276)

Sorry there are no passes over London.